This is the latest recevied weather packets stored in our database for station/object SP2FH-13. If no packets are shown the sender has not sent any weather packets the latest 10 day(s).
| Time | Temp. | Humidity | Pressure | Rain* | Wind** | Luminosity | Snow |
|---|---|---|---|---|---|---|---|
| 1777696928 | 7.78° C | 77% | 1013.4 hPa | - | - | 56 W/m² | - |
| 1777696627 | 7.78° C | 77% | 1013.4 hPa | - | - | 51 W/m² | - |
| 1777696326 | 7.22° C | 78% | 1013.3 hPa | - | - | 43 W/m² | - |
| 1777696026 | 6.67° C | 77% | 1013.4 hPa | - | - | 43 W/m² | - |
| 1777695725 | 6.11° C | 80% | 1013.4 hPa | - | - | 40 W/m² | - |
| 1777695423 | 5.56° C | 83% | 1013.3 hPa | - | - | 35 W/m² | - |
| 1777695123 | 5.56° C | 83% | 1013.3 hPa | - | - | 26 W/m² | - |
| 1777694822 | 5.56° C | 82% | 1013.4 hPa | - | - | 23 W/m² | - |
| 1777694520 | 5.56° C | 83% | 1013.4 hPa | - | - | 21 W/m² | - |
| 1777694219 | 5° C | 84% | 1013.4 hPa | - | - | 19 W/m² | - |
| 1777693918 | 5° C | 84% | 1013.3 hPa | - | - | 17 W/m² | - |
| 1777693617 | 5° C | 84% | 1013.4 hPa | - | - | 15 W/m² | - |
| 1777693316 | 5.56° C | 83% | 1013.5 hPa | - | - | 13 W/m² | - |
| 1777693016 | 5.56° C | 84% | 1013.4 hPa | - | - | 11 W/m² | - |
| 1777692715 | 5.56° C | 83% | 1013.4 hPa | - | - | 9 W/m² | - |
| 1777692413 | 5.56° C | 83% | 1013.5 hPa | - | - | 7 W/m² | - |
| 1777692112 | 5.56° C | 83% | 1013.5 hPa | - | - | 5 W/m² | - |
| 1777691811 | 5.56° C | 83% | 1013.5 hPa | - | - | 4 W/m² | - |
| 1777691510 | 5.56° C | 84% | 1013.5 hPa | - | - | 3 W/m² | - |
| 1777691209 | 5° C | 84% | 1013.6 hPa | - | - | 2 W/m² | - |
| 1777690908 | 5° C | 84% | 1013.5 hPa | - | - | 1 W/m² | - |
| 1777690615 | 5.56° C | 84% | 1013.5 hPa | - | - | - | - |
| 1777690305 | 5.56° C | 82% | 1013.5 hPa | - | - | - | - |
| 1777690004 | 5.56° C | 82% | 1013.5 hPa | - | - | - | - |
| 1777689703 | 5.56° C | 81% | 1013.4 hPa | - | - | - | - |
* Rain since midnight (hover to see other rain measurements)
** Current wind speed in m/s (hover to see current wind gust speed)